Hourly Weather Kozlow

Today, 29 October, Thursday

Time Temperature Precipitation Wind Pressure Humidity
00:00 +10°C° 0 mm 3 mps 735 mmHg 83%
01:00 +11°C° 0 mm 3 mps 735 mmHg 82%
02:00 +10°C° 0 mm 3 mps 735 mmHg 84%
03:00 +9°C° 0 mm 3 mps 735 mmHg 86%
04:00 +9°C° 0 mm 3 mps 735 mmHg 88%
05:00 +9°C° 0 mm 3 mps 735 mmHg 87%
06:00 +9°C° 0 mm 3 mps 735 mmHg 87%
07:00 +9°C° 0 mm 3 mps 735 mmHg 86%
08:00 +10°C° 0 mm 4 mps 735 mmHg 79%
09:00 +11°C° 0 mm 4 mps 735 mmHg 72%
10:00 +12°C° 0 mm 5 mps 735 mmHg 65%
11:00 +13°C° 0 mm 5 mps 735 mmHg 65%
12:00 +13°C° 0 mm 6 mps 734 mmHg 65%
13:00 +13°C° 0 mm 6 mps 734 mmHg 64%
14:00 +11°C° 0.2 mm 6 mps 734 mmHg 71%
15:00 +10°C° 0.2 mm 5 mps 734 mmHg 78%
16:00 +9°C° 0.2 mm 5 mps 734 mmHg 84%
17:00 +9°C° 0.4 mm 5 mps 735 mmHg 82%
18:00 +10°C° 0.4 mm 4 mps 735 mmHg 80%
19:00 +10°C° 0.4 mm 4 mps 736 mmHg 79%
20:00 +8°C° 0 mm 4 mps 736 mmHg 79%
21:00 +7°C° 0 mm 4 mps 736 mmHg 80%
22:00 +7°C° 0 mm 4 mps 737 mmHg 81%
23:00 +6°C° 0 mm 4 mps 737 mmHg 82%

Tomorrow, 30 October, Friday

Time Temperature Precipitation Wind Pressure Humidity
00:00 +6°C° 0 mm 4 mps 737 mmHg 84%
01:00 +5°C° 0 mm 4 mps 738 mmHg 85%
02:00 +5°C° 0 mm 4 mps 738 mmHg 85%
03:00 +5°C° 0 mm 4 mps 738 mmHg 86%
04:00 +4°C° 0 mm 3 mps 738 mmHg 86%
05:00 +4°C° 0 mm 3 mps 738 mmHg 86%
06:00 +4°C° 0 mm 3 mps 738 mmHg 87%
07:00 +4°C° 0 mm 3 mps 738 mmHg 87%
08:00 +5°C° 0 mm 3 mps 738 mmHg 82%
09:00 +7°C° 0 mm 4 mps 738 mmHg 77%
10:00 +8°C° 0 mm 4 mps 738 mmHg 72%
11:00 +8°C° 0.3 mm 4 mps 738 mmHg 77%
12:00 +7°C° 0.3 mm 4 mps 737 mmHg 81%
13:00 +7°C° 0.3 mm 4 mps 737 mmHg 86%
14:00 +7°C° 1.3 mm 4 mps 736 mmHg 88%
15:00 +7°C° 1.3 mm 4 mps 736 mmHg 91%
16:00 +7°C° 1.3 mm 4 mps 736 mmHg 93%
17:00 +8°C° 1.2 mm 5 mps 736 mmHg 93%
18:00 +9°C° 1.2 mm 6 mps 736 mmHg 93%
19:00 +9°C° 1.2 mm 6 mps 736 mmHg 93%
20:00 +9°C° 0.8 mm 6 mps 736 mmHg 93%
21:00 +10°C° 0.8 mm 6 mps 736 mmHg 93%
22:00 +10°C° 0.8 mm 6 mps 736 mmHg 93%
23:00 +9°C° 1.1 mm 5 mps 736 mmHg 94%

Day after tomorrow, 31 October, Saturday

Time Temperature Precipitation Wind Pressure Humidity
00:00 +9°C° 1.1 mm 5 mps 736 mmHg 94%
01:00 +10°C° 1.1 mm 4 mps 736 mmHg 95%
02:00 +9°C° 0.4 mm 3 mps 737 mmHg 94%
03:00 +9°C° 0.4 mm 3 mps 737 mmHg 94%
04:00 +9°C° 0.4 mm 3 mps 738 mmHg 93%
05:00 +8°C° 0 mm 2 mps 738 mmHg 92%
06:00 +8°C° 0 mm 2 mps 739 mmHg 90%
07:00 +8°C° 0 mm 2 mps 739 mmHg 89%
08:00 +8°C° 0 mm 2 mps 740 mmHg 83%
09:00 +9°C° 0 mm 2 mps 740 mmHg 78%
10:00 +9°C° 0 mm 2 mps 740 mmHg 73%
11:00 +10°C° 0 mm 2 mps 741 mmHg 70%
12:00 +12°C° 0 mm 2 mps 741 mmHg 67%
13:00 +11°C° 0 mm 3 mps 741 mmHg 64%
14:00 +10°C° 0 mm 2 mps 741 mmHg 69%
15:00 +10°C° 0 mm 2 mps 741 mmHg 73%
16:00 +9°C° 0 mm 2 mps 741 mmHg 77%
17:00 +8°C° 0 mm 2 mps 741 mmHg 79%
18:00 +8°C° 0 mm 2 mps 742 mmHg 82%
19:00 +8°C° 0 mm 1 mps 742 mmHg 84%
20:00 +8°C° 0 mm 1 mps 742 mmHg 86%
21:00 +7°C° 0 mm 1 mps 742 mmHg 87%
22:00 +7°C° 0 mm 1 mps 742 mmHg 89%
23:00 +6°C° 0 mm 1 mps 742 mmHg 89%

1 November, Sunday

Time Temperature Precipitation Wind Pressure Humidity
00:00 +6°C° 0 mm 1 mps 742 mmHg 89%
01:00 +5°C° 0 mm 2 mps 742 mmHg 89%
02:00 +4°C° 0 mm 2 mps 742 mmHg 90%
03:00 +4°C° 0 mm 2 mps 741 mmHg 91%
04:00 +4°C° 0 mm 2 mps 741 mmHg 92%
05:00 +4°C° 0 mm 2 mps 741 mmHg 92%
06:00 +3°C° 0 mm 2 mps 741 mmHg 92%
07:00 +3°C° 0 mm 2 mps 741 mmHg 93%
08:00 +4°C° 0 mm 3 mps 741 mmHg 87%
09:00 +5°C° 0 mm 3 mps 741 mmHg 81%
10:00 +7°C° 0 mm 4 mps 741 mmHg 75%
11:00 +8°C° 0 mm 4 mps 741 mmHg 71%
12:00 +10°C° 0 mm 4 mps 740 mmHg 68%
13:00 +10°C° 0 mm 4 mps 740 mmHg 65%
14:00 +10°C° 0 mm 3 mps 740 mmHg 69%
15:00 +9°C° 0 mm 3 mps 739 mmHg 73%
16:00 +8°C° 0 mm 3 mps 739 mmHg 77%
17:00 +7°C° 0 mm 3 mps 739 mmHg 80%
18:00 +7°C° 0 mm 2 mps 739 mmHg 82%
19:00 +6°C° 0 mm 2 mps 739 mmHg 85%
20:00 +6°C° 0 mm 2 mps 739 mmHg 85%
21:00 +5°C° 0 mm 2 mps 739 mmHg 85%
22:00 +5°C° 0 mm 2 mps 739 mmHg 85%
23:00 +5°C° 0 mm 2 mps 739 mmHg 85%

2 November, Monday

Time Temperature Precipitation Wind Pressure Humidity
00:00 +5°C° 0 mm 2 mps 739 mmHg 85%
01:00 +6°C° 0 mm 2 mps 738 mmHg 85%
02:00 +5°C° 0 mm 2 mps 738 mmHg 85%
03:00 +5°C° 0 mm 2 mps 738 mmHg 86%
04:00 +5°C° 0 mm 2 mps 738 mmHg 87%
05:00 +5°C° 0 mm 2 mps 738 mmHg 86%
06:00 +5°C° 0 mm 2 mps 738 mmHg 86%
07:00 +5°C° 0 mm 2 mps 738 mmHg 86%
08:00 +7°C° 0 mm 3 mps 738 mmHg 81%
09:00 +9°C° 0 mm 3 mps 738 mmHg 75%
10:00 +10°C° 0 mm 3 mps 738 mmHg 70%
11:00 +11°C° 0 mm 3 mps 737 mmHg 70%
12:00 +11°C° 0 mm 3 mps 737 mmHg 70%
13:00 +12°C° 0 mm 3 mps 737 mmHg 70%
14:00 +11°C° 0 mm 3 mps 737 mmHg 72%
15:00 +12°C° 0 mm 2 mps 737 mmHg 75%
16:00 +12°C° 0 mm 2 mps 737 mmHg 77%
17:00 +10°C° 0.4 mm 3 mps 737 mmHg 81%
18:00 +10°C° 0.4 mm 3 mps 737 mmHg 85%
19:00 +10°C° 0.4 mm 3 mps 737 mmHg 89%
20:00 +10°C° 0.1 mm 3 mps 737 mmHg 89%
21:00 +10°C° 0.1 mm 2 mps 737 mmHg 90%
22:00 +10°C° 0.1 mm 2 mps 737 mmHg 90%
23:00 +10°C° 0 mm 2 mps 737 mmHg 90%

3 November, Tuesday

Time Temperature Precipitation Wind Pressure Humidity
00:00 +10°C° 0 mm 2 mps 737 mmHg 90%
01:00 +10°C° 0 mm 2 mps 737 mmHg 90%
02:00 +10°C° 0 mm 2 mps 737 mmHg 91%
03:00 +10°C° 0 mm 2 mps 737 mmHg 91%
04:00 +10°C° 0 mm 1 mps 736 mmHg 92%
05:00 +10°C° 0 mm 1 mps 737 mmHg 92%
06:00 +10°C° 0 mm 1 mps 737 mmHg 92%
07:00 +10°C° 0 mm 1 mps 737 mmHg 92%
08:00 +11°C° 0 mm 1 mps 737 mmHg 89%
09:00 +12°C° 0 mm 1 mps 737 mmHg 87%
10:00 +13°C° 0 mm 1 mps 737 mmHg 84%
11:00 +13°C° 0 mm 1 mps 738 mmHg 84%
12:00 +13°C° 0 mm 1 mps 738 mmHg 84%
13:00 +13°C° 0 mm 1 mps 738 mmHg 84%
14:00 +13°C° 0 mm 1 mps 738 mmHg 86%
15:00 +12°C° 0 mm 1 mps 738 mmHg 88%
16:00 +12°C° 0 mm 1 mps 738 mmHg 90%
17:00 +12°C° 0 mm 2 mps 738 mmHg 90%
18:00 +10°C° 0 mm 2 mps 739 mmHg 90%
19:00 +10°C° 0 mm 3 mps 739 mmHg 91%
20:00 +9°C° 0.1 mm 2 mps 739 mmHg 90%
21:00 +9°C° 0.1 mm 2 mps 739 mmHg 89%
22:00 +9°C° 0.1 mm 2 mps 739 mmHg 88%
23:00 +9°C° 0.6 mm 2 mps 739 mmHg 89%
Show more